Skip Page Navigation
NASA JPL Caltech
NASA Logo - Jet Propulsion Laboratory + View the NASA Portal
+ Center for Near-Earth Object Studies
JPL Home Earth Solar System Stars & Galaxies Technology
JPL Solar System Dynamics
BODIES ORBITS EPHEMERIDES TOOLS PHYSICAL DATA DISCOVERY FAQ SITE MAP
IMPORTANT: The SSD Announcement email list is now available. Major changes are coming in the near future, including possible hostname and/or URL changes. To be notified of such changes, subscribe to this email list.

Please visit this page for more details.


JPL Small-Body Database Browser
Search: [ help ]  
100285 (1995 CG3)
Classification: Main-belt Asteroid          SPK-ID: 2100285
Ephemeris | Orbit Diagram | Orbital Elements | Mission Design | Physical Parameters | Discovery Circumstances | Close-Approach Data ]

[ show orbit diagram ]
Orbital Elements at Epoch 2459000.5 (2020-May-31.0) TDB
Reference: JPL 19 (heliocentric ecliptic J2000)
 Element Value Uncertainty (1-sigma)   Units 
e .1136862833599112 4.6207e-08  
a 2.877459938715112 2.3437e-08 au
q 2.550332212765553 1.2753e-07 au
i 8.84162579973378 6.2853e-06 deg
node 149.0964098204262 3.5846e-05 deg
peri 105.39228143 4.7646e-05 deg
M 320.958583638568 3.2004e-05 deg
tp 2459193.846101536546
(2020-Dec-10.34610154)
0.00015864 TDB
period 1782.839943837621
4.88
2.1782e-05
5.964e-08
d
yr
n .2019250248707622 2.467e-09 deg/d
Q 3.204587664664671 2.6101e-08 au
  Orbit Determination Parameters
   # obs. used (total)      499  
   data-arc span      9127 days (24.99 yr)  
   first obs. used      1995-02-01  
   last obs. used      2020-01-28  
   planetary ephem.      DE431  
   SB-pert. ephem.      SB431-N16  
   condition code      0  
   norm. resid. RMS      .61415  
   source      ORB  
   producer      Otto Matic  
   solution date      2020-Feb-24 01:03:33  

Additional Information
 Earth MOID = 1.55352 au 
 Jupiter MOID = 1.90838 au 
 T_jup = 3.268 
[ show covariance matrix ]

Ephemeris | Orbit Diagram | Orbital Elements | Mission Design | Physical Parameters | Discovery Circumstances | Close-Approach Data ]

Physical Parameter Table
Parameter Symbol Value Units Sigma Reference Notes
absolute magnitude H 15.1   n/a MPO432531  
diameter diameter 2.612 km 0.537 urn:nasa:pds:neowise_diameters_albedos::2.0[mainbelt] (http://adsabs.harvard.edu/abs/2011ApJ...741...68M)  
geometric albedo albedo 0.259   0.172 urn:nasa:pds:neowise_diameters_albedos::2.0[mainbelt] (http://adsabs.harvard.edu/abs/2011ApJ...741...68M)  

100285 (1995 CG3)          Discovered 1995-Feb-01 by Spacewatch at Kitt Peak
Reference: 20051019/Numbers.arcLast Updated: 2005-10-26

[ show close-approach data ]
Alternate Designations
 1995 CG3 = 2000 CD79 
Ephemeris | Orbit Diagram | Orbital Elements | Mission Design | Physical Parameters | Discovery Circumstances | Close-Approach Data ]
ABOUT SSD CREDITS/AWARDS PRIVACY/COPYRIGHT GLOSSARY LINKS
FirstGov 2020-Apr-08 20:09 UT
(server date/time)  
NASA Home Page
Site Manager:   Ryan S. Park
Webmaster  Alan B. Chamberlin